SHIYAN 23 (SY-23)

导读

SHIYAN 23(SY-23,试验二十三号)是中国自主研制的空间试验卫星,于北京时间2024年5月12日(公开信息显示发射日为5月12日,与提供日期记录差一天)在酒泉卫星发射中心由长征四号丙运载火箭发射升空,卫星顺利进入预定轨道,发射任务取得圆满成功。该卫星主要承担空间环境探测任务,为中国空间科学研究提供一手观测数据,是长征系列运载火箭第522次飞行任务。

Basic Information
目录编号:
59728
目录名称:
SHIYAN 23 (SY-23)
国际标识:
2024-089A
轨道中心:
EARTH
卫星名称:
SHIYAN 23 (SY-23)
卫星全名:
--
卫星状态:
在轨 (已飞行764 天)
发射日期:
2024-05-11 UTC
国别 :
中国 (CN)
星等 :
--
Orbit Information
数据来源 国际轨道数据
星历时间: 2026-06-15T01:03:02+0800
6小时前
查看轨道信息
半长轴: 6985.354km
偏心率: 0.0003107
轨道倾角: 97.777°
近地点辐角 177.401°
升交点赤经 167.542°
平近点角 182.723°
近地点: 605.046km
远地点: 609.388km
周期: 96.837分钟
每日圈数: 14.870314
Detailed Information
使用方式:
暂无
2D Orbit Map
3D Orbit Map
Orbit Altitude Analysis Chart
Orbit Inclination Analysis Chart
Orbit Comprehensive Analysis Chart
View Comprehensive Chart